User: anonymous   Login
Location: Unspecified
(0.0000°N, 0.0000°E)
Time: 12:37:52
(UTC+00:00)
Language:

GALILEO 8 (264) - Orbit

View from above orbital plane
View from above orbital plane
View from above satellite
View from above satellite

Ground track
Ground track

The orbit data is extracted from the following two-line orbital elements,

1 40545U 15017B   17086.82895383 +.00000012 +00000-0 +00000-0 0  9993
2 40545 055.5622 074.3007 0001896 265.6568 094.3217 01.70475351012448
Epoch (UTC): 27 March 2017 19:53:41
Eccentricity: 0.0001896
inclination: 55.5622°
perigee height: 23216 km
apogee height: 23227 km
right ascension of ascending node: 74.3007°
argument of perigee: 265.6568°
revolutions per day: 1.70475351
mean anomaly at epoch: 94.3217°
orbit number at epoch: 1244

The dashed part of the orbit path shows where the satellite is in the earth's shadow,  

DLR